sat.trackr.live / text

‹ back to catalog

UNKNOWN

NORAD 81021

UNKNOWN UNKNOWN UNKNOWN

§ Identity

Operator
Country
Launch date
Launch site
Launch vehicle
Mass (kg)
RCS (m²)

External: N2YO · Heavens-Above

§ Orbital elements

Epoch: 2026-09-13T03:35:47.957568Z

Period
100.43 min
Inclination
74.0397°
Eccentricity
0.0026395
Mean motion
14.33855058 rev/d
Perigee alt
760.0 km
Apogee alt
797.8 km
Semi-major
7,157.0 km
B*
4.4809e-4
RAAN
174.2688°
Arg perigee
194.1209°
Mean anomaly
165.9208°
Rev number
2,527

§ Raw data

UNKNOWN1 81021U          26256.14986062  .00001226  00000+0  44809-3 0  99972 81021  74.0397 174.2688 0026395 194.1209 165.9208 14.33855058 25270

JSON: /api/v1/satellites/81021 · /tle

For live sub-satellite position, see the globe view (requires WebGL).

§ Visibility from observer

Set your observer location to see the next 7 days of passes ≥ 10°. The values pass through the URL so the page stays shareable.

No JS? Fill the form by hand. The geolocation button needs JavaScript.